Regional Weather Roundup
Issued by NWS

Home | Current Version | Previous Version | Graphics & Text | Print | Product List | Glossary On
Versions: 1 2 3 4 5 6 7 8 9 10 11 12 13 14 15 16 17 18 19 20 21 22 23 24 25 26 27 28 29 30 31 32 33 34 35 36 37 38 39 40 41 42 43 44 45 46 47 48 49 50
000
ASUS43 KLSX 291110
RWRMO

WEATHER SUMMARY FOR MISSOURI
NATIONAL WEATHER SERVICE SPRINGFIELD MO
600 AM CDT FRI APR 29 2016

NOTE: "FAIR" INDICATES FEW OR NO CLOUDS BELOW 12,000 FEET WITH NO
       SIGNIFICANT WEATHER AND/OR OBSTRUCTIONS TO VISIBILITY.
       CURRENT SKY AND/OR WEATHER CONDITIONS ARE NOT AVAILABLE FOR
       CHILLICOTHE AND FARMINGTON.

MOZ001>031-035>038-043-044-053-054-291200-
...NORTHERN AND WESTERN MISSOURI...

CITY           SKY/WX    TMP DP  RH WIND       PRES   REMARKS
KANSAS CTY INT CLOUDY    47  43  86 NE6       30.04S
KANSAS C DTWN  CLOUDY    49  43  80 NE8       30.04S
LEE`S SUMMIT   CLOUDY    49  44  83 NE10      30.02F
ST JOSEPH      CLOUDY    46  40  79 NE5       30.06R
CHILLICOTHE      N/A     49  44  83 VRB3      30.03F
KIRKSVILLE     CLOUDY    47  44  90 N12       30.03F

$$
MOZ066>068-077>081-088>096-101>105-291200-
...SOUTHWEST MISSOURI...

CITY           SKY/WX    TMP DP  RH WIND       PRES   REMARKS
SPRINGFIELD    CLOUDY    52  45  77 NE15      29.97F
JOPLIN         CLOUDY    52  47  83 NE10      29.95F

$$
MOZ032>034-039>042-045>050-055>058-069>072-291200-
...CENTRAL MISSOURI...

CITY           SKY/WX    TMP DP  RH WIND       PRES   REMARKS
COLUMBIA       PTCLDY    49  47  93 NE6       30.04F
JEFFERSON CITY PTCLDY    50  46  86 VRB3      30.05F
ROLLA          CLEAR     49  46  90 NE8       30.01F
SEDALIA        CLOUDY    49  45  86 NE8       30.03F
WHITEMAN AFB   MOCLDY    48  48  99 NE8       30.01F
WARRENSBURG    CLOUDY    46  45  93 NE6       30.02S
OSAGE BEACH    CLOUDY    48  39  71 NE7       30.01F

$$
MOZ051-052-059>065-291200-
...EAST CENTRAL MISSOURI...

CITY           SKY/WX    TMP DP  RH WIND       PRES   REMARKS
ST LOUIS INTL  CLOUDY    54  49  83 N6        30.05F
SPIRIT OF STL  CLEAR     53  49  86 CALM      30.04F
ST CHARLES     CLOUDY    52  49  89 N7        30.04F

$$
MOZ072>076-082>087-097>100-106>115-291200-
...SOUTH CENTRAL AND SOUTHEAST MISSOURI...

CITY           SKY/WX    TMP DP  RH WIND       PRES   REMARKS
CAPE GIRARDEAU CLEAR     56  50  80 NE9       30.00F
FARMINGTON     PTCLDY    52  48  86 N3        30.04S
POPLAR BLUFF   CLEAR     56  50  80 NE9       29.98F
WEST PLAINS    CLOUDY    53  47  79 NE12      29.98F

$$




USA.gov is the U.S. government's official web portal to all federal, state and local government web resources and services.